Location: Central Falls
(41.8900°N, 71.3929°W)
Time: 13:20:53
(UTC+00:00)

Vanguard 1 Rocket - All Passes

Search period start: 03 December 2023 00:00
Search period end: 13 December 2023 00:00
Orbit: 656 x 4218 km, 34.3° (Epoch: 02 December)

Date Brightness Start Highest point End Pass type
(mag) Time Alt. Az. Time Alt. Az. Time Alt. Az.
03 Dec - 06:52:02 10° S 07:07:44 21° SE 07:19:50 10° E visible
03 Dec - 09:16:29 10° SW 09:36:49 44° SSE 09:48:38 10° E visible
03 Dec - 11:47:47 10° WSW 12:04:46 59° S 12:13:23 10° E daylight
03 Dec - 14:19:53 10° W 14:30:36 43° SSW 14:36:34 10° SE daylight
03 Dec - 16:52:57 10° SW 16:54:01 10° SW 16:55:01 10° SW daylight
04 Dec - 05:44:52 10° SSE 05:53:59 13° SE 06:02:09 10° ESE visible
04 Dec - 08:02:43 10° SSW 08:23:09 36° SSE 08:36:31 10° E visible
04 Dec - 10:32:10 10° WSW 10:51:58 56° S 11:02:24 10° E visible
04 Dec - 13:04:48 10° W 13:18:59 55° SSW 13:26:17 10° ESE daylight
04 Dec - 15:36:35 10° W 15:43:26 23° SW 15:48:03 10° SSE daylight
05 Dec - 06:50:27 10° S 07:09:16 28° SE 07:23:18 10° E visible
05 Dec - 09:16:56 10° SW 09:38:36 50° SSE 09:51:02 10° E visible
05 Dec - 11:49:08 10° WSW 12:06:45 61° S 12:15:39 10° ESE daylight
05 Dec - 14:21:42 10° W 14:32:29 39° SSW 14:38:35 10° SE daylight
06 Dec - 05:40:42 10° S 05:55:24 19° SE 06:07:54 10° E visible
06 Dec - 08:02:37 10° SW 08:24:47 43° SSE 08:39:04 10° E visible
06 Dec - 10:33:13 10° WSW 10:53:52 61° S 11:04:41 10° E visible
06 Dec - 13:06:23 10° W 13:20:55 53° SSW 13:28:27 10° ESE daylight
06 Dec - 15:38:57 10° W 15:45:04 19° SW 15:49:25 10° S daylight
07 Dec - 06:49:40 10° SSW 07:10:42 34° SE 07:26:12 10° E visible
07 Dec - 09:17:38 10° SW 09:40:22 56° SSE 09:53:18 10° E visible
07 Dec - 11:50:32 10° W 12:08:41 62° S 12:17:52 10° ESE daylight
07 Dec - 14:23:32 10° W 14:34:14 34° SSW 14:40:27 10° SSE daylight
08 Dec - 05:38:38 10° S 05:56:40 25° SE 06:11:48 10° E visible
08 Dec - 08:02:54 10° SW 08:26:21 49° SSE 08:41:25 10° E visible
08 Dec - 10:34:24 10° WSW 10:55:44 64° S 11:06:54 10° E visible
08 Dec - 13:07:59 10° W 13:22:46 50° SSW 13:30:31 10° SE daylight
08 Dec - 15:41:43 10° W 15:46:34 15° SW 15:50:18 10° SSW daylight
09 Dec - 04:31:07 10° SSE 04:42:55 15° SE 04:54:00 10° ESE visible
09 Dec - 06:49:25 10° SSW 07:12:04 40° SSE 07:28:45 10° E visible
09 Dec - 09:18:32 10° WSW 09:42:05 61° SSE 09:55:32 10° E visible
09 Dec - 11:51:57 10° W 12:10:33 61° SSW 12:20:02 10° ESE daylight
09 Dec - 14:25:27 10° W 14:35:50 29° SW 14:42:07 10° SSE daylight
10 Dec - 05:37:34 10° SSW 05:57:50 31° SE 06:14:53 10° E visible
10 Dec - 08:03:28 10° SW 08:27:53 55° SSE 08:43:39 10° E visible
10 Dec - 10:35:40 10° WSW 10:57:33 66° S 11:09:05 10° ESE visible
10 Dec - 13:09:35 10° W 13:24:30 45° SSW 13:32:27 10° SE daylight
10 Dec - 15:45:32 10° WSW 15:47:56 11° SW 15:50:03 10° SW daylight
11 Dec - 04:28:07 10° S 04:43:56 21° SE 04:58:49 10° E visible
11 Dec - 06:49:35 10° SW 07:13:23 47° SSE 07:31:05 10° E visible
11 Dec - 09:19:37 10° WSW 09:43:47 65° S 09:57:41 10° E visible
11 Dec - 11:53:24 10° W 12:12:21 58° SSW 12:22:06 10° ESE daylight
11 Dec - 14:27:30 10° W 14:37:18 25° SW 14:43:31 10° S daylight
12 Dec - 03:25:47 10° SE 03:30:34 11° SE 03:35:21 10° ESE visible
12 Dec - 05:37:11 10° SSW 05:58:55 37° SE 06:17:31 10° E visible
12 Dec - 08:04:17 10° SW 08:29:24 60° SSE 08:45:47 10° E visible
12 Dec - 10:37:00 10° W 10:59:19 66° S 11:11:12 10° ESE visible
12 Dec - 13:11:13 10° W 13:26:05 40° SW 13:34:15 10° SSE daylight
